Location: Aboncourt
(47.7710°N, 5.9826°E)
Time: 03:09:59
(UTC+00:00)

TSX-5 - Pass Details

Date: 05 July 2020
Orbit: 404 x 1328 km, 68.9° (Epoch: 03 August)

Event Time Altitude Azimuth Distance (km) Brightness Sun altitude
Rises 21:30:14 0° 333° (NNW) 2,402 9.1 -13.7°
Reaches altitude 10° 21:32:12 10° 340° (NNW) 1,588 7.6 -13.9°
Maximum altitude 21:35:34 48° 57° (ENE) 661 4.2 -14.1°
Enters shadow 21:37:52 22° 123° (ESE) 1,233 5.1 -14.3°
